This is the latest recevied weather packets stored in our database for station/object W3BRL. If no packets are shown the sender has not sent any weather packets the latest 1 day(s).
| Time | Temp. | Humidity | Pressure | Rain* | Wind** | Luminosity | Snow |
|---|---|---|---|---|---|---|---|
| 1778039444 | 18.89° C | 49% | 1005.7 hPa | 0 mm | 1.79 m/s, 194° | 0 W/m² | - |
| 1778039146 | 18.89° C | 49% | 1005.8 hPa | 0 mm | 1.79 m/s, 197° | 0 W/m² | - |
| 1778038838 | 19.44° C | 48% | 1005.6 hPa | 0 mm | 0.89 m/s, 179° | 0 W/m² | - |
| 1778038536 | 19.44° C | 48% | 1005.6 hPa | 0 mm | 0.45 m/s, 183° | 0 W/m² | - |
| 1778038232 | 19.44° C | 48% | 1005.8 hPa | 0 mm | 0.89 m/s, 170° | 0 W/m² | - |
| 1778037930 | 19.44° C | 48% | 1005.7 hPa | 0 mm | 1.79 m/s, 193° | 0 W/m² | - |
| 1778037626 | 19.44° C | 48% | 1005.7 hPa | 0 mm | 1.34 m/s, 173° | 0 W/m² | - |
| 1778037324 | 19.44° C | 48% | 1005.9 hPa | 0 mm | 1.34 m/s, 191° | 0 W/m² | - |
| 1778037021 | 19.44° C | 48% | 1005.9 hPa | 0 mm | 0.89 m/s, 182° | 0 W/m² | - |
| 1778036719 | 19.44° C | 47% | 1005.9 hPa | 0 mm | 1.79 m/s, 188° | 0 W/m² | - |
| 1778036416 | 19.44° C | 47% | 1005.6 hPa | 0 mm | 1.34 m/s, 186° | 0 W/m² | - |
| 1778036113 | 19.44° C | 47% | 1005.8 hPa | 0 mm | 0.89 m/s, 202° | 0 W/m² | - |
| 1778035809 | 19.44° C | 47% | 1005.9 hPa | 0 mm | 2.24 m/s, 187° | 0 W/m² | - |
| 1778035506 | 19.44° C | 47% | 1005.7 hPa | 0 mm | 1.34 m/s, 185° | 0 W/m² | - |
| 1778035202 | 19.44° C | 47% | 1005.8 hPa | 0 mm | 1.79 m/s, 189° | 0 W/m² | - |
| 1778034899 | 19.44° C | 47% | 1005.9 hPa | 0 mm | 1.34 m/s, 200° | 0 W/m² | - |
| 1778034595 | 19.44° C | 46% | 1005.7 hPa | 0 mm | 1.79 m/s, 194° | 0 W/m² | - |
| 1778034293 | 20° C | 46% | 1005.9 hPa | 0 mm | 1.79 m/s, 214° | 0 W/m² | - |
| 1778033991 | 20° C | 46% | 1005.8 hPa | 0 mm | 2.68 m/s, 210° | 0 W/m² | - |
| 1778033688 | 20° C | 46% | 1005.9 hPa | 0 mm | 3.13 m/s, 185° | 0 W/m² | - |
| 1778033385 | 20° C | 46% | 1006 hPa | 0 mm | 0.89 m/s, 187° | 0 W/m² | - |
| 1778033083 | 20° C | 46% | 1005.8 hPa | 0 mm | 1.79 m/s, 205° | 0 W/m² | - |
| 1778032780 | 20° C | 46% | 1005.8 hPa | 0 mm | 2.24 m/s, 200° | 0 W/m² | - |
| 1778032477 | 20° C | 46% | 1005.9 hPa | 0 mm | 1.79 m/s, 196° | 0 W/m² | - |
| 1778032174 | 20° C | 45% | 1006 hPa | 0 mm | 2.68 m/s, 214° | 0 W/m² | - |
* Rain latest hour (hover to see other rain measurements)
** Current wind speed in m/s (hover to see current wind gust speed)